Weather in Pavlo-Antonovka

Russia / Orenburg Oblast     52°24′42″N   52°42′38″E
temp.,
°C
wind,
m/s
gust,
m/s
humid.,
%
clouds,
%
prec.,
mm/h
press.,
hPa
HPBL,
m
27 november, sat
sat2723:00−3ssw614917 0.0 1028366
02:00−4ssw614915 0.0 1029369
05:00−6ssw511875 0.0 1029235
08:00−7s4108710 0.0 1030183
11:00−6s411945 0.0 1030242
14:00−4s411845 0.0 1030295
17:00−8se23875 0.0 103021
20:00−12ese23915 0.0 103035
28 november, sun
sun2823:00−11se36875 0.0 102986
02:00−10se410865 0.0 1028146
05:00−7sse41281100 0.0 1027224
08:00−5sse51280100 0.0 1025317
11:00−4sse61578100 0.0 1025373
14:00−2sse61578100 0.0 1023445
17:00−1sse51279100 0.0 1023395
20:00−2sse51279100 0.0 1023330
29 november, mon
mon2923:00−2sse51181100 0.1 1023301
02:00−1s41086100 0.3 1023312
05:00−1sse3989100 0.4 1023282
08:00−1sse3987100 0.3 1023274
11:000sse388799 0.5 1024248
14:000s4983100 0.0 1024290
17:000sse3886100 0.1 1024251
20:00−1sse498589 0.1 1023196
30 november, tue
tue3023:00−4sse410825 0.1 1023169
02:00−4se51380100 0.0 1020256
05:00−3se71675100 0.0 1018313
08:00−3sse81974100 0.0 1015374
11:00−1sse82172100 0.0 1012505
14:00+1sse92074100 0.0 1009563
17:00+2sse112274100 0.0 1006597
20:00+2s102184100 0.4 1004602
1 december, wed
wed123:00+2s81792100 1.9 1003566
02:00+2s71497100 0.6 1002378
05:00+1sse51096100 0.8 1001273
08:00+1sse5109696 0.2 1000257
11:00+1sse4994100 0.2 999284
14:00+1se4995100 0.8 996312
17:00+1se61194100 1.6 993359
20:00+1sse51399100 7.3 990437